Theta_e
274 273 272 272 271 271 270 270 271 271 271 271 272 272 272 272 272 272 272 272 272 271 271 271 271 271 271 271 270 270 270 270 269 269 269 269 269 269 269 269 269 269 269 270 270 270 270 270 270 271 271 271 271 271 272 273 273 274 275 276 276 276
274 273 272 272 271 271 270 270 271 271 271 271 271 271 271 271 271 272 271 271 271 271 271 271 271 270 270 270 270 270 269 269 269 269 268 268 268 268 268 268 268 268 268 268 269 269 269 269 270 270 270 270 270 271 271 272 273 274 274 275 275 275
274 273 272 271 271 270 271 271 271 271 271 271 271 271 271 271 271 271 271 271 271 270 270 270 270 270 270 269 269 269 268 268 268 268 268 268 267 267 267 267 267 267 267 267 267 267 268 268 268 269 269 269 269 270 270 271 272 273 274 274 274 275
274 273 272 271 271 270 270 271 271 271 271 271 271 271 271 271 271 271 271 270 270 270 270 270 269 269 269 269 268 268 268 267 267 267 267 267 266 266 266 266 266 266 266 266 266 266 267 267 267 267 268 268 268 269 270 271 272 272 273 273 274 274
274 273 272 271 271 270 270 270 271 271 271 271 271 271 270 270 270 270 270 270 270 269 269 269 269 269 268 268 267 267 267 267 266 266 266 266 266 266 266 265 266 266 266 266 266 266 266 266 266 267 267 267 268 268 269 270 271 272 272 273 273 273
274 273 272 272 271 270 270 270 270 271 271 270 270 270 270 270 270 270 270 269 269 269 269 269 269 268 268 267 267 267 267 266 266 266 265 265 265 265 265 265 265 265 265 265 265 265 265 265 266 266 266 266 267 268 269 270 271 271 271 272 272 272
274 273 273 272 271 271 270 270 270 271 271 270 270 270 270 270 270 269 269 269 269 269 268 269 268 268 268 267 267 266 266 266 265 265 265 264 264 264 264 264 264 264 264 264 264 265 265 265 265 265 265 266 267 268 269 270 270 271 271 271 272 272
274 274 273 272 272 271 270 270 270 271 270 270 270 270 270 269 269 269 269 268 268 268 268 268 268 267 267 267 266 266 266 265 265 265 264 264 264 264 263 263 263 264 264 264 264 264 264 264 265 265 265 265 267 268 269 270 270 270 271 271 271 271
274 274 273 272 271 271 270 270 270 270 270 270 270 270 269 269 269 269 268 268 268 268 268 267 267 267 267 266 266 265 265 265 264 264 264 264 264 263 263 263 263 263 263 263 263 264 264 264 264 264 264 265 267 268 269 270 270 270 270 271 271 271
275 274 273 272 271 271 270 270 270 270 270 270 270 269 269 269 269 268 268 268 268 267 267 267 267 267 266 265 265 264 264 264 264 264 263 263 263 263 262 263 262 262 263 263 263 263 263 264 264 264 264 265 267 268 269 269 270 270 270 270 271 271
275 274 273 272 271 271 270 270 270 270 270 270 269 269 269 269 268 268 268 267 267 267 267 267 267 266 265 265 264 264 263 263 263 263 263 263 262 262 262 262 262 262 262 262 262 263 263 263 264 264 264 266 267 268 269 269 269 270 270 270 270 270
275 275 274 273 272 271 270 270 269 269 269 269 269 269 269 269 268 268 267 267 267 267 267 267 266 265 265 264 264 263 263 263 263 262 262 262 262 262 262 262 262 262 261 262 262 262 262 263 263 264 264 266 268 268 269 269 269 270 270 270 270 269
275 275 274 273 272 271 271 270 269 269 269 269 269 269 269 268 268 268 267 267 267 267 267 266 266 265 264 264 263 263 263 262 262 262 261 261 261 261 261 261 261 261 261 261 261 262 262 263 263 264 264 266 267 268 269 269 269 269 269 269 269 269
276 275 274 273 272 272 271 270 270 269 269 269 269 269 269 268 268 267 267 267 267 267 266 266 265 265 264 263 263 263 262 262 262 261 261 261 261 261 261 261 261 261 261 261 261 261 262 262 263 264 264 266 267 268 268 269 269 269 268 268 268 268
276 275 274 273 273 272 272 271 271 270 270 269 269 269 269 268 268 267 267 267 267 266 266 265 265 264 263 263 263 262 262 262 261 261 261 260 260 260 260 260 260 260 260 260 260 261 261 262 263 263 264 265 266 267 268 268 268 268 267 267 267 267
276 275 274 274 274 273 272 272 271 271 270 269 269 269 268 268 267 267 267 267 267 266 265 265 265 264 263 263 263 262 262 261 261 260 260 260 260 260 260 260 260 260 260 260 260 260 261 262 263 263 264 265 266 267 268 267 267 267 266 267 267 267
276 275 274 274 274 273 272 272 271 270 269 269 269 268 268 267 267 267 267 267 266 266 265 265 264 264 263 262 262 262 261 261 260 260 260 260 260 259 259 260 259 259 260 260 260 260 261 262 263 263 263 264 265 266 267 266 266 266 266 266 266 266
276 275 275 275 274 273 272 272 271 270 269 269 268 268 268 267 267 267 267 266 266 265 265 264 264 263 263 262 262 261 261 260 260 260 259 259 259 259 259 259 259 259 260 260 260 260 260 262 262 262 263 264 265 266 266 265 266 266 266 266 266 266
276 275 275 275 274 274 273 272 271 270 269 268 268 268 267 267 267 267 266 266 266 265 264 264 263 263 262 262 261 261 260 260 260 259 259 259 259 259 259 259 259 259 259 260 260 259 260 261 262 262 262 263 264 265 265 265 265 266 266 266 266 266
275 275 275 274 274 274 273 272 271 270 269 268 268 267 267 267 267 267 266 266 265 265 264 264 263 263 262 262 261 261 260 260 260 259 259 259 259 259 259 258 259 259 259 259 260 259 260 261 262 262 262 262 264 264 265 265 265 265 266 266 266 266
275 275 274 274 274 274 273 273 271 270 269 269 268 267 267 267 267 267 266 266 265 265 264 264 263 262 262 261 261 260 260 260 259 259 259 259 258 258 258 258 258 259 259 259 260 260 260 260 261 261 261 262 263 264 265 265 265 265 265 266 266 266
274 274 274 274 274 274 273 272 271 270 270 269 268 267 268 268 268 267 266 266 265 265 264 263 263 262 261 261 260 260 260 259 259 259 259 258 258 258 258 258 258 258 259 259 259 260 260 259 260 261 261 261 262 264 264 265 265 265 265 266 266 267
273 274 274 274 274 273 273 272 270 270 270 268 268 268 269 269 268 266 266 265 265 264 264 263 263 262 261 261 260 260 259 259 259 259 258 258 258 258 258 258 258 258 258 259 259 259 260 260 260 260 261 261 262 263 264 264 265 265 266 266 266 267
273 273 273 273 273 272 272 271 270 270 269 268 268 269 270 268 267 266 265 265 264 264 263 263 262 262 261 261 260 260 259 259 259 258 258 258 258 258 258 258 257 257 258 258 259 259 260 260 260 260 260 261 261 262 264 264 265 265 266 266 266 266
272 273 273 272 272 271 270 270 269 269 268 268 269 270 269 267 266 265 265 264 264 264 263 262 262 261 261 260 260 259 259 259 258 258 258 258 257 257 257 257 257 257 257 257 258 259 259 260 260 260 260 261 261 262 263 264 265 265 266 266 266 265
272 272 272 272 271 270 270 269 269 268 268 269 270 269 268 267 266 265 264 264 264 263 263 262 261 261 260 260 259 259 259 259 258 258 257 257 257 257 256 256 256 256 256 257 257 258 259 259 259 259 260 260 261 261 263 264 264 265 265 265 265 264
272 272 271 271 270 270 269 269 268 268 268 270 269 268 267 266 265 265 264 264 264 263 262 261 261 260 260 259 259 259 258 258 258 258 257 257 256 256 256 256 256 256 256 256 257 257 258 259 259 259 259 260 260 261 262 263 264 264 264 264 264 263
271 270 270 270 270 270 269 269 268 268 269 269 268 267 267 266 265 264 264 264 263 263 262 261 260 260 260 259 259 258 258 258 258 258 257 256 256 256 256 256 256 256 256 256 256 257 258 258 258 259 259 260 260 261 262 263 263 263 263 263 263 263
269 269 270 270 270 270 270 269 268 269 269 268 267 267 266 265 264 264 264 263 263 262 262 261 260 260 260 259 258 258 258 258 258 257 257 257 257 256 256 256 256 256 256 256 256 257 258 258 259 259 259 260 260 261 262 263 263 263 263 263 263 264
270 270 270 270 271 270 270 269 269 269 269 267 266 266 265 264 264 264 263 263 263 262 261 261 260 260 259 259 259 258 258 258 258 257 258 258 257 256 256 256 256 256 256 256 257 257 258 258 259 259 259 260 261 262 262 262 262 262 262 263 264 263
270 270 270 271 271 270 270 270 269 269 268 267 266 265 264 264 263 263 263 262 262 262 261 261 260 260 259 259 259 259 258 258 258 258 258 258 258 257 257 256 256 257 257 257 257 258 258 258 259 260 260 261 262 262 262 262 262 262 263 263 263 262
270 270 270 271 270 270 269 269 269 269 268 267 267 266 265 264 263 262 262 262 262 262 261 261 260 260 259 259 258 258 258 258 258 258 258 258 258 257 257 257 257 257 258 257 258 259 259 259 259 260 260 261 262 262 261 261 262 262 263 263 263 261
269 269 270 270 270 269 269 269 269 268 268 267 267 266 265 264 263 262 262 262 262 262 261 260 260 259 259 258 258 258 258 258 258 258 258 258 258 258 257 257 257 257 258 259 259 260 259 259 259 259 260 261 260 260 260 261 261 262 262 262 261 259
269 269 270 270 270 269 269 269 268 268 267 267 267 266 265 264 263 262 263 263 262 262 261 260 260 259 258 258 258 257 257 257 257 258 258 258 257 257 257 257 257 257 258 259 260 259 259 258 258 259 259 259 259 259 259 260 261 261 261 260 259 257
270 270 270 270 269 269 269 268 268 268 267 267 266 265 265 264 263 263 263 263 262 262 261 260 259 259 258 258 258 257 257 257 256 257 257 258 257 257 257 257 257 257 258 258 258 258 257 257 258 258 258 257 257 257 258 260 260 260 259 258 257 256
269 269 269 269 269 268 268 268 268 267 267 266 266 265 264 264 264 263 263 263 262 261 261 260 259 259 258 258 258 257 257 256 256 256 256 256 257 257 257 258 257 257 257 257 257 257 257 257 257 257 257 257 257 257 258 259 259 258 257 257 255 254
268 268 268 268 268 267 267 267 267 267 266 266 265 265 264 264 263 263 262 262 261 261 260 260 259 259 258 258 257 257 257 256 256 256 255 255 256 256 257 258 258 258 257 257 257 257 257 257 257 257 257 257 256 257 257 257 257 256 256 256 255 254
267 267 267 267 267 267 266 267 267 266 266 265 265 264 264 263 262 262 262 261 261 260 260 259 259 259 258 258 257 257 256 256 255 255 255 255 255 255 256 257 258 258 257 257 257 257 257 257 257 257 257 257 256 256 256 256 255 254 254 254 254 254
Wind_Speed
10 9 8 7 7 6 6 6 7 8 8 9 9 10 11 12 12 13 14 15 16 16 17 18 19 19 20 21 22 23 23 23 23 23 22 23 22 22 23 23 23 23 23 23 23 23 22 22 23 23 23 22 21 20 18 17 18 17 16 16 16 17
11 10 9 8 8 7 7 7 7 7 8 8 8 8 9 10 10 11 12 13 14 14 15 16 17 18 19 20 21 22 22 22 23 22 22 22 21 21 22 22 21 22 22 22 21 21 22 22 22 22 22 20 19 18 17 17 17 15 15 16 15 16
11 10 9 9 9 8 9 9 8 7 7 7 7 7 7 8 9 9 10 11 12 13 13 14 16 17 18 19 20 21 21 21 21 21 21 21 20 20 21 21 20 21 21 21 20 20 21 21 21 21 20 20 19 18 17 16 16 15 15 15 16 16
12 11 10 10 10 9 9 9 9 8 7 6 6 6 6 6 7 7 8 9 10 11 12 14 15 17 18 19 19 21 21 21 21 20 20 20 19 19 20 20 20 20 20 19 19 19 19 19 20 19 19 19 18 18 16 16 16 16 16 16 16 16
13 12 11 11 10 10 10 10 9 9 7 6 5 4 4 4 5 5 6 8 9 10 12 13 15 16 17 18 19 20 20 20 20 19 19 19 18 19 19 18 19 19 19 18 17 18 18 18 18 18 18 17 16 17 16 16 16 17 17 16 16 17
12 12 12 12 11 11 11 11 11 10 8 7 5 4 3 2 3 3 5 7 8 9 11 13 14 16 17 17 18 20 20 20 19 19 19 18 18 18 18 17 18 18 17 17 17 18 17 17 18 18 17 16 15 15 16 16 17 17 17 17 16 16
13 13 13 13 12 12 13 13 12 11 10 8 6 4 3 2 1 2 4 5 7 8 10 13 14 16 17 17 18 19 19 19 19 18 18 18 18 18 16 16 17 17 17 17 17 17 17 17 17 17 17 15 14 15 15 16 17 17 17 17 17 17
13 14 13 13 13 13 14 14 14 13 11 9 8 6 5 3 1 1 3 5 7 8 11 13 14 16 17 17 17 18 18 18 18 18 18 17 18 17 16 15 16 16 16 17 17 17 17 17 17 16 16 14 14 15 16 17 17 17 17 17 17 17
14 15 14 14 14 14 15 15 15 14 13 11 10 8 7 5 3 2 3 4 6 8 10 12 14 15 16 16 16 16 16 16 17 17 17 17 17 17 16 16 17 16 16 17 16 16 17 17 17 16 14 13 15 16 17 18 18 18 17 17 17 16
14 15 15 14 14 15 16 16 16 15 14 13 12 10 8 6 4 3 3 4 6 8 10 12 13 14 15 15 15 15 15 15 16 16 16 16 16 15 16 16 16 16 16 16 16 17 17 17 17 15 13 14 17 18 18 18 18 18 18 18 17 16
14 14 15 15 15 16 16 17 17 17 16 15 14 12 10 8 6 4 4 5 6 8 10 12 13 14 14 14 14 14 14 15 15 15 15 15 14 14 15 16 16 16 16 16 17 17 17 17 17 15 14 16 18 19 19 19 18 18 19 18 17 16
14 14 14 14 15 17 17 18 19 19 19 17 15 14 11 9 7 6 5 5 6 8 10 12 13 13 14 13 14 14 14 14 15 15 14 13 14 14 15 15 15 15 15 16 18 18 18 18 17 15 16 18 19 19 19 19 18 18 18 17 17 17
13 13 14 15 17 18 18 19 20 21 20 18 17 15 13 11 9 7 6 5 7 9 10 11 12 13 13 13 13 13 13 14 14 14 13 12 13 14 14 15 15 14 15 16 17 18 18 18 17 16 17 19 20 20 19 19 19 18 16 15 17 18
12 13 15 16 17 18 19 20 21 22 22 20 19 17 14 12 10 8 7 7 8 9 10 11 12 12 12 12 12 13 13 13 13 13 12 12 13 14 14 14 14 14 15 15 17 18 18 19 17 15 16 20 20 20 20 19 19 17 15 15 16 17
12 14 15 16 17 19 21 22 23 23 23 22 20 18 16 14 11 10 8 8 8 9 10 11 12 12 11 12 12 12 12 13 12 12 12 12 13 14 14 14 14 14 15 15 17 18 19 19 17 15 17 20 21 20 21 19 17 15 15 16 16 17
11 12 14 16 17 18 19 20 22 22 22 22 21 18 17 15 13 11 10 9 9 9 10 11 12 11 11 12 12 12 12 12 12 11 12 12 13 13 13 14 14 15 15 15 16 18 20 19 17 15 18 20 20 21 21 18 15 14 14 16 16 16
10 11 13 15 16 16 17 19 20 21 21 21 21 19 18 16 14 13 11 10 10 10 10 11 11 12 12 12 12 12 12 11 11 11 11 12 13 13 13 14 14 15 16 16 17 18 20 20 17 15 18 20 21 21 20 17 15 14 14 15 16 16
12 12 14 14 15 16 17 19 20 21 21 21 21 20 19 17 16 14 12 11 11 10 11 11 12 12 12 12 12 12 12 11 11 11 12 13 13 13 13 14 15 16 17 18 18 18 20 20 17 15 17 20 21 21 19 16 15 15 15 15 16 16
12 12 13 13 14 16 17 18 19 20 21 22 22 21 20 18 17 15 13 12 12 11 11 11 12 12 12 12 12 12 11 11 11 12 13 13 13 12 13 14 16 17 18 18 18 17 19 20 18 15 17 20 21 20 18 17 16 15 15 16 16 16
11 12 13 13 14 15 16 18 19 20 22 22 22 22 21 20 19 17 14 13 13 12 12 12 12 13 13 12 12 12 12 12 12 13 13 14 14 14 14 15 17 18 18 18 18 17 18 20 18 16 17 19 20 19 18 17 16 15 15 16 17 17
12 13 13 14 15 15 16 17 18 20 22 23 23 23 22 22 21 17 14 14 13 13 13 13 13 13 13 13 12 13 13 13 13 14 14 14 15 15 16 17 18 18 18 18 18 17 17 18 18 17 17 18 19 19 17 16 15 14 16 17 18 18
13 14 15 15 16 16 17 18 19 21 23 23 24 24 23 23 21 17 15 15 14 13 13 13 14 13 13 13 13 13 14 13 14 14 14 14 15 16 17 17 17 18 19 18 18 17 16 16 17 18 17 17 18 18 17 16 14 14 16 18 19 19
15 15 16 16 16 17 18 19 21 22 23 24 24 24 24 23 19 16 16 16 15 14 14 14 14 14 13 13 13 14 14 14 14 14 15 15 16 16 17 17 17 18 19 18 18 17 15 14 15 18 17 15 16 18 17 15 15 16 18 19 19 19
17 17 17 17 17 18 18 20 22 23 23 25 25 24 23 22 18 17 18 17 15 15 14 14 14 14 14 14 14 14 15 15 15 15 15 15 16 17 18 18 17 18 18 19 18 17 15 14 14 16 16 14 15 17 17 16 17 18 19 19 19 18
19 20 19 19 19 19 19 21 23 23 25 26 25 23 22 21 19 19 19 17 16 16 15 15 15 14 15 15 14 15 15 15 15 16 16 16 16 17 18 17 16 16 16 18 18 17 15 14 15 16 16 14 14 17 18 17 18 19 19 18 18 18
21 21 21 21 21 20 21 23 24 25 27 26 24 22 23 22 20 20 20 19 17 17 16 15 15 15 15 15 15 15 16 16 16 16 16 16 15 16 17 16 15 14 14 16 18 17 14 15 16 17 16 14 14 16 17 19 20 20 18 17 17 18
21 21 22 22 22 22 23 24 25 27 28 26 23 23 23 22 21 22 21 20 19 17 16 16 16 16 16 15 15 16 16 16 16 17 16 16 15 15 16 16 14 14 14 15 15 15 15 16 16 15 15 15 14 15 18 20 20 19 17 17 18 19
21 22 22 23 23 24 24 25 27 28 27 25 23 24 23 22 22 23 22 21 19 18 17 17 17 17 16 16 16 17 17 17 17 17 17 17 17 17 17 17 17 16 15 14 14 14 15 14 13 12 13 12 12 16 20 19 17 17 17 19 20 21
23 23 24 25 25 24 25 26 28 28 27 25 25 25 23 22 23 23 23 21 20 19 18 18 18 17 17 17 17 17 18 18 18 18 19 19 18 18 18 18 17 16 15 14 13 13 12 12 11 11 10 11 15 20 21 17 16 17 18 19 20 19
24 25 25 26 25 25 25 27 27 27 26 27 27 26 24 24 24 24 24 22 21 21 20 20 19 19 18 19 18 18 19 19 18 19 20 20 18 18 18 17 17 17 15 13 12 12 13 13 11 9 10 14 19 22 19 17 18 18 18 19 20 17
25 25 26 26 25 24 26 26 26 26 25 26 28 28 27 27 26 25 25 24 23 23 22 21 21 20 20 20 20 19 20 19 19 20 20 20 18 18 18 18 18 17 15 14 14 17 18 16 12 10 14 19 21 20 19 19 20 20 20 21 20 19
25 25 26 26 25 25 26 26 25 24 24 25 27 28 29 29 28 27 27 26 26 25 24 23 22 21 20 20 20 20 20 20 19 20 20 20 18 17 16 17 18 17 16 18 19 20 18 16 14 16 19 20 20 19 20 21 21 22 22 22 21 22
25 26 27 27 26 26 26 26 25 24 24 24 25 26 28 29 29 30 30 29 28 27 25 24 23 22 21 21 20 20 21 21 20 20 20 19 18 18 17 16 17 18 20 21 20 18 16 16 17 18 19 19 19 20 20 21 21 21 21 20 20 23
25 26 28 28 27 26 27 26 26 25 24 23 24 25 26 28 30 31 31 30 29 27 25 25 24 22 22 21 21 21 21 21 21 21 20 17 16 17 16 15 16 17 18 18 17 15 14 14 15 16 17 18 19 19 20 21 21 20 19 19 21 22
26 27 27 27 26 26 27 27 27 25 24 23 24 25 26 28 30 30 30 30 28 27 26 25 24 23 23 22 21 21 20 20 20 20 20 19 17 16 16 15 15 16 15 15 15 14 13 13 15 15 17 18 18 19 20 20 19 19 19 19 20 18
26 26 26 26 25 26 27 28 28 26 24 24 24 25 27 28 28 29 29 29 28 27 26 26 24 23 23 22 21 21 21 20 20 19 19 20 20 18 16 15 14 14 14 14 14 13 12 14 15 15 17 18 18 19 19 19 20 22 21 20 17 13
25 25 25 25 25 26 28 29 28 25 24 24 25 26 27 27 27 28 29 29 29 28 27 26 25 24 23 22 22 21 21 20 20 19 19 19 20 20 19 17 14 13 13 14 13 12 11 12 14 15 17 18 19 19 18 19 22 23 21 21 19 13
24 25 25 25 26 28 29 30 28 26 25 25 25 26 27 27 27 28 29 30 30 29 28 27 26 25 24 23 22 21 21 20 20 20 19 19 19 20 21 20 17 14 13 13 13 12 11 13 14 16 17 19 19 17 16 18 19 17 16 18 17 13
Wind_Direction
178 176 173 174 169 166 161 148 136 125 117 109 100 91 83 75 68 63 58 51 47 42 37 34 30 27 23 19 16 13 11 8 5 3 1 360 359 357 356 356 355 355 356 356 356 355 354 354 353 352 354 355 353 350 347 345 345 343 339 339 339 338
181 179 178 177 176 177 173 163 153 142 132 120 107 96 86 78 69 63 58 52 45 41 35 30 26 23 19 16 13 9 7 4 2 0 358 357 356 355 354 355 353 352 352 353 353 353 352 352 351 351 351 350 349 347 344 342 342 339 335 335 335 335
182 181 179 180 182 185 184 178 170 160 149 134 120 106 92 82 71 63 58 52 44 37 31 25 21 18 14 12 10 6 4 2 360 358 357 356 354 352 353 353 351 349 349 350 350 349 350 350 349 349 348 347 345 344 341 340 340 336 332 332 332 333
182 180 181 185 188 190 192 188 181 176 166 149 135 115 99 85 72 63 53 47 40 32 26 20 16 13 10 9 6 3 1 359 359 357 356 355 353 351 351 350 349 348 347 347 346 345 346 347 347 346 345 343 342 341 338 337 336 333 332 330 329 330
182 181 185 189 192 193 195 195 192 191 184 167 151 129 111 94 74 60 46 40 33 26 19 14 12 9 7 6 1 359 359 357 357 356 355 354 352 351 350 349 348 347 346 344 342 341 342 342 343 343 342 340 338 336 334 333 332 330 328 327 326 327
182 185 190 192 195 197 198 200 201 201 196 184 171 156 145 120 77 52 39 32 24 19 14 9 7 6 5 2 358 357 357 355 355 355 354 353 351 350 349 347 346 345 345 343 340 340 339 338 339 340 339 337 334 332 331 329 328 326 324 323 321 322
190 194 195 195 197 198 201 205 206 207 205 198 192 187 187 178 98 35 26 20 13 11 8 4 4 2 0 358 356 355 354 354 354 353 353 353 350 350 348 346 346 344 343 341 339 339 337 335 337 337 336 334 331 330 328 326 325 322 320 319 318 318
197 199 199 199 199 200 204 207 209 211 210 207 207 208 210 213 225 339 1 4 5 4 1 0 359 357 356 354 352 352 352 353 353 353 353 352 350 351 348 345 345 344 341 338 337 337 335 335 335 333 332 332 330 329 326 324 322 319 317 316 315 315
202 204 203 202 202 204 206 209 211 214 214 214 216 218 218 223 236 280 332 348 355 357 356 355 353 352 351 350 349 350 351 352 353 353 353 351 351 351 347 345 346 343 340 338 337 335 334 336 336 332 330 330 330 328 325 323 320 317 316 313 312 312
206 206 206 204 204 206 209 212 215 216 217 219 221 223 225 229 240 270 310 334 346 349 348 347 348 348 347 346 347 348 349 350 351 352 351 351 351 350 346 346 345 342 340 339 336 335 336 338 338 335 332 330 328 327 324 322 319 316 314 312 310 310
208 206 207 205 203 206 209 213 216 218 219 221 223 225 229 232 244 265 292 320 334 338 340 342 343 343 343 342 343 344 345 348 349 349 350 351 349 347 346 346 345 342 341 338 337 338 339 340 340 337 331 327 326 325 323 321 318 315 313 311 310 309
211 208 205 203 205 207 208 211 216 219 220 222 224 227 230 235 246 261 279 305 322 328 334 337 338 338 338 336 337 340 342 344 346 346 347 348 346 345 345 345 345 343 339 337 338 340 339 339 340 337 329 325 324 324 323 320 317 315 312 310 309 309
212 209 206 207 209 210 210 212 217 219 220 222 224 227 231 236 243 254 269 291 310 321 328 331 331 332 331 330 332 336 337 340 342 343 342 342 342 343 344 344 343 341 338 336 336 337 336 337 340 336 327 324 325 325 324 320 317 314 310 309 309 309
208 208 210 211 210 211 214 217 219 221 221 222 224 227 231 236 242 251 264 286 301 312 321 323 324 325 323 323 327 330 333 336 339 338 336 336 337 340 343 342 339 338 338 336 334 334 334 335 339 337 326 324 326 326 324 320 316 312 309 308 308 307
205 208 210 213 216 220 223 223 223 224 224 223 225 227 230 234 241 249 260 279 294 303 311 314 318 317 315 316 321 325 329 332 334 333 331 332 334 337 339 337 335 336 337 334 332 332 334 336 340 337 327 325 326 326 325 321 315 310 307 307 307 306
204 209 215 223 228 229 229 228 227 227 226 224 225 227 229 233 238 246 257 271 283 294 302 307 310 308 307 310 315 320 325 326 327 328 327 328 331 332 332 332 332 334 336 334 331 330 332 336 341 338 327 325 326 326 325 321 314 309 305 304 305 305
200 209 219 226 229 227 225 225 225 224 223 222 224 225 228 232 236 243 252 263 275 286 293 299 301 300 300 304 310 315 318 320 322 322 321 324 327 327 327 328 330 332 334 335 332 330 331 336 341 336 326 324 326 327 325 321 314 309 305 303 303 302
214 219 224 225 223 222 221 222 221 220 220 220 221 224 228 231 236 242 249 260 270 280 287 292 294 294 296 300 305 309 312 313 315 315 316 320 323 324 324 325 327 329 332 335 334 330 329 334 339 335 326 325 326 327 325 320 314 309 306 304 303 303
221 222 223 221 219 219 218 220 219 217 218 218 219 223 227 231 236 241 248 258 268 276 282 286 287 288 291 295 299 302 305 306 308 310 314 318 319 319 319 320 324 327 330 333 334 328 324 328 336 336 329 325 326 327 325 318 313 310 306 305 305 303
211 212 214 214 216 218 217 219 218 215 215 218 221 224 226 231 237 241 246 256 266 273 280 282 282 283 285 289 292 294 297 300 303 306 310 313 314 315 316 318 322 326 328 329 330 327 323 325 332 335 330 325 325 325 323 318 313 310 307 306 306 305
208 210 211 212 214 216 216 218 218 215 216 220 223 224 227 235 240 241 247 256 263 271 276 279 278 278 280 284 287 289 292 296 298 301 306 309 311 312 314 317 320 323 325 326 327 329 327 323 326 331 330 325 323 323 322 317 312 309 308 308 308 307
211 211 213 215 218 218 219 220 218 218 220 223 224 226 233 240 243 242 246 254 261 269 274 276 276 276 277 280 283 285 289 292 296 299 303 305 306 308 310 314 315 316 320 322 323 326 326 320 320 326 329 326 321 321 322 318 312 309 309 308 308 308
216 217 220 223 224 223 223 221 219 221 224 224 226 232 241 245 243 240 245 253 260 266 270 272 273 273 274 276 279 282 286 289 293 295 297 299 302 304 306 309 311 311 315 319 320 323 323 320 319 324 328 327 321 319 320 317 311 309 309 308 308 307
220 221 224 227 227 227 225 222 222 224 225 225 231 241 247 246 241 239 245 252 257 262 267 269 269 269 271 273 276 280 283 286 289 291 293 296 298 300 302 304 307 307 309 313 317 320 321 320 322 325 327 329 323 318 318 314 309 310 311 308 307 307
223 226 229 229 228 228 225 222 224 226 225 230 240 248 248 244 240 240 245 250 255 260 264 266 267 267 268 271 274 276 278 282 285 288 290 292 294 296 298 300 302 302 304 307 312 318 321 322 326 326 326 330 326 318 315 314 313 313 311 308 308 308
226 230 233 232 231 229 227 226 227 227 229 239 249 249 245 244 240 239 244 249 254 259 262 264 265 265 265 268 270 271 274 278 281 284 286 287 288 289 291 294 295 295 296 301 306 313 318 323 325 324 325 334 334 324 317 316 315 314 311 309 308 305
230 233 234 235 233 231 230 231 230 229 236 247 251 247 246 245 239 239 244 248 252 257 261 262 263 263 264 266 266 268 271 274 276 279 281 281 281 281 283 286 287 287 291 294 299 306 315 321 321 316 318 327 330 323 320 318 314 312 311 308 304 301
230 232 235 237 236 233 233 234 232 234 244 252 251 248 248 244 240 241 245 247 252 257 259 260 262 264 264 264 264 266 268 269 271 275 276 274 274 277 279 281 283 284 286 289 294 304 312 314 311 306 306 309 311 317 322 322 316 311 310 307 303 298
229 232 236 238 238 236 236 236 237 241 248 251 249 249 249 243 241 243 244 246 251 255 257 260 262 264 264 263 263 264 265 267 268 270 271 271 272 275 277 278 280 281 281 285 294 302 305 305 303 300 300 304 311 317 322 321 316 313 311 309 304 295
232 236 239 242 243 242 240 241 244 247 248 247 247 249 247 244 243 243 244 247 251 253 257 260 262 263 263 263 264 264 265 266 267 268 269 271 270 271 272 273 274 275 276 280 291 298 299 300 300 293 296 307 312 315 316 316 315 313 310 309 307 300
237 239 242 246 248 246 245 246 249 250 249 247 247 247 245 245 245 244 244 246 248 252 256 259 260 261 262 262 265 266 265 267 268 269 271 273 271 270 269 269 270 274 278 285 295 297 293 292 293 295 301 307 310 312 314 314 312 310 307 307 310 311
241 242 245 249 249 247 248 250 251 251 249 248 247 246 245 245 243 243 244 245 247 251 254 257 259 261 260 261 264 266 268 269 269 268 269 273 275 272 267 265 268 274 280 287 293 295 288 283 291 300 303 306 309 311 313 312 309 308 308 310 314 316
242 241 245 248 248 247 250 252 253 252 250 249 247 246 245 243 240 240 243 244 247 251 253 256 259 260 260 261 263 265 268 271 272 270 270 272 274 273 269 264 262 266 272 277 282 287 285 283 292 301 303 307 312 313 313 312 310 309 311 316 320 319
243 242 246 249 250 250 251 253 254 253 252 250 248 246 244 241 238 239 243 245 248 251 253 255 258 259 258 259 261 262 265 268 272 275 275 274 272 269 267 264 260 260 265 270 275 282 288 291 296 301 303 307 311 313 312 311 310 312 316 319 319 317
247 248 250 252 253 253 254 255 255 254 252 250 249 246 244 242 240 241 244 246 247 249 251 253 255 256 256 257 259 260 262 263 265 271 277 280 278 270 263 261 258 255 256 261 266 273 284 291 294 297 302 308 313 315 313 312 310 312 316 317 315 313
252 252 253 255 255 254 254 255 256 255 252 251 250 247 245 244 243 243 244 245 246 248 251 253 254 255 255 257 258 258 259 259 260 264 270 277 281 280 273 263 254 248 247 250 254 262 273 283 290 297 306 312 315 315 314 310 306 304 307 313 316 313
255 255 255 256 256 255 255 257 257 255 253 251 249 247 246 244 242 242 243 244 245 247 250 252 254 254 255 256 256 257 257 258 258 260 263 267 273 277 278 272 262 252 249 252 257 263 272 282 293 303 310 314 316 317 315 309 306 306 309 314 316 311
259 258 257 256 256 255 255 258 258 255 253 251 249 247 246 243 240 240 241 242 243 245 248 251 253 253 254 255 256 257 257 255 255 256 258 262 265 268 272 273 271 265 260 259 262 268 279 290 300 307 311 314 317 319 313 305 305 307 308 309 310 306